Location: *
(40.7873°S, 98.7174°E)
Time: 11:02:28
(UTC+00:00)

Kosmos-1816 - Pass Details

Date: 23 June 2024
Orbit: 959 x 1007 km, 82.9° (Epoch: 23 July)

Event Time Altitude Azimuth Distance (km) Brightness Sun altitude
Rises 13:08:09 0° 198° (SSW) 3,761 9.2 -33.7°
Reaches altitude 10° 13:10:59 10° 207° (SSW) 2,798 8.6 -34.2°
Maximum altitude 13:16:30 32° 266° (W) 1,661 7.6 -35.3°
Drops below altitude 10° 13:21:56 10° 326° (NW) 2,741 8.7 -36.3°
Sets 13:24:41 0° 336° (NNW) 3,673 9.3 -36.8°
